Total_Precipitation_Accumulation
1.44 1.51 1.49 1.45 1.47 1.43 1.30 1.14 1.08 1.06 1.02 1.03 1.12 1.19 1.17 1.20 1.25 1.31 1.35 1.56 1.65 1.63 1.60 1.60 1.53 1.51 1.49 1.44 1.52 1.64 1.76 1.75 1.49 1.23 1.26 1.29 1.26 1.14 1.09 1.02 0.92 0.83 0.67
1.35 1.51 1.56 1.50 1.47 1.39 1.20 1.08 1.06 1.05 1.04 1.05 1.13 1.17 1.08 1.06 1.17 1.24 1.29 1.42 1.50 1.48 1.43 1.42 1.28 1.27 1.30 1.25 1.33 1.39 1.48 1.66 1.62 1.46 1.51 1.54 1.51 1.40 1.34 1.27 1.09 0.88 0.73
1.29 1.60 1.72 1.67 1.55 1.39 1.21 1.05 1.00 1.03 1.07 1.08 1.09 1.12 1.13 1.19 1.28 1.30 1.29 1.27 1.27 1.29 1.39 1.46 1.29 1.25 1.20 1.21 1.22 1.19 1.23 1.39 1.51 1.51 1.54 1.63 1.63 1.62 1.48 1.32 1.23 1.10 0.86
1.14 1.36 1.45 1.35 1.25 1.18 1.09 0.98 0.93 0.96 1.03 1.07 1.10 1.10 1.15 1.25 1.28 1.33 1.33 1.25 1.17 1.14 1.20 1.26 1.27 1.25 1.23 1.30 1.27 1.24 1.24 1.35 1.47 1.52 1.57 1.70 1.72 1.63 1.59 1.42 1.40 1.28 1.14
0.86 0.98 1.08 1.06 0.99 0.95 0.95 0.93 0.90 0.99 1.01 1.07 1.15 1.15 1.11 1.09 1.04 1.04 1.06 1.07 1.10 1.06 1.01 1.01 1.04 1.13 1.15 1.15 1.09 1.20 1.30 1.34 1.35 1.39 1.43 1.61 1.80 1.84 1.65 1.54 1.61 1.59 1.44
0.74 0.84 0.97 1.06 1.04 0.97 0.93 0.95 0.93 1.01 1.06 1.10 1.12 1.18 1.17 0.97 1.05 1.05 1.03 1.13 1.20 1.17 1.11 1.04 0.99 0.98 0.94 0.91 0.91 0.96 1.11 1.22 1.25 1.29 1.32 1.46 1.67 1.85 1.90 1.84 1.76 1.68 1.64
0.79 0.87 0.99 1.09 1.13 1.09 1.01 1.04 1.05 1.12 1.19 1.17 1.15 1.15 1.16 1.18 1.21 1.10 0.98 0.93 1.00 1.05 1.08 1.07 0.94 0.86 0.93 0.89 0.92 0.89 0.88 0.97 1.06 1.16 1.23 1.26 1.40 1.63 1.84 1.79 1.84 1.86 1.83
0.86 0.95 1.09 1.19 1.19 1.17 1.19 1.24 1.29 1.35 1.38 1.36 1.30 1.23 1.26 1.26 1.18 1.01 0.94 0.86 0.89 0.94 0.99 1.04 1.04 0.95 0.94 1.00 1.02 0.98 0.90 0.87 0.90 0.92 0.98 1.11 1.32 1.55 1.81 1.78 1.76 1.82 1.86
0.98 1.03 1.15 1.27 1.32 1.35 1.40 1.45 1.50 1.55 1.49 1.44 1.42 1.42 1.37 1.37 1.34 1.13 1.06 0.98 1.03 1.06 1.09 1.08 1.06 0.99 1.06 1.03 1.01 1.02 0.96 0.91 0.88 0.90 0.90 1.04 1.23 1.33 1.52 1.63 1.59 1.60 1.51
1.16 1.28 1.44 1.60 1.64 1.67 1.77 1.85 1.78 1.70 1.58 1.58 1.55 1.53 1.55 1.62 1.74 1.50 1.36 1.28 1.31 1.29 1.33 1.23 1.14 1.06 1.08 1.02 0.95 0.98 0.97 0.97 1.02 1.00 0.96 0.96 1.01 1.16 1.30 1.39 1.50 1.55 1.43
1.24 1.41 1.62 1.77 1.85 1.91 2.03 2.07 2.02 2.00 1.96 1.88 1.76 1.71 1.72 1.77 1.89 1.70 1.55 1.47 1.52 1.57 1.53 1.40 1.36 1.31 1.16 1.14 1.09 1.07 1.08 1.08 1.13 1.14 1.13 1.12 1.14 1.21 1.26 1.32 1.46 1.57 1.52
1.27 1.41 1.54 1.68 1.72 1.79 2.01 2.11 2.17 2.18 2.12 2.03 1.97 1.82 1.78 1.77 1.70 1.57 1.42 1.37 1.49 1.64 1.71 1.61 1.52 1.42 1.21 1.15 1.08 1.08 1.09 1.02 1.01 1.12 1.13 1.13 1.11 1.09 1.12 1.23 1.36 1.42 1.45
1.36 1.49 1.61 1.69 1.77 1.86 1.91 1.91 1.97 2.04 2.03 1.95 1.95 1.87 1.81 1.78 1.73 1.48 1.25 1.17 1.21 1.32 1.50 1.57 1.47 1.33 1.16 1.04 1.02 0.98 0.90 0.80 0.83 0.89 0.90 0.89 0.88 0.93 1.05 1.21 1.38 1.44 1.39
1.46 1.51 1.58 1.69 1.72 1.75 1.87 1.95 2.01 2.10 2.19 2.10 1.99 1.90 1.84 1.77 1.65 1.47 1.27 1.17 1.20 1.29 1.40 1.47 1.35 1.23 1.07 0.99 0.93 0.84 0.77 0.81 0.84 0.85 0.86 0.90 0.96 1.02 1.07 1.14 1.24 1.33 1.36
1.34 1.40 1.45 1.49 1.57 1.65 1.70 1.79 1.80 1.86 1.84 1.81 1.77 1.75 1.73 1.68 1.52 1.43 1.31 1.20 1.24 1.35 1.41 1.47 1.38 1.33 1.26 1.18 1.10 1.03 1.00 1.01 0.95 0.93 0.98 0.99 0.99 1.05 1.06 1.08 1.20 1.21 1.16
1.39 1.41 1.37 1.35 1.40 1.46 1.50 1.49 1.46 1.38 1.35 1.31 1.31 1.32 1.30 1.25 1.17 1.06 1.01 1.01 1.06 1.20 1.27 1.43 1.50 1.47 1.43 1.36 1.24 1.13 1.08 1.03 0.98 0.99 1.02 1.03 1.03 1.04 1.10 1.08 1.14 1.17 1.09
1.25 1.27 1.26 1.27 1.33 1.34 1.36 1.39 1.43 1.35 1.24 1.16 1.14 1.11 1.14 1.10 1.05 1.02 1.02 1.06 1.06 1.11 1.16 1.32 1.38 1.34 1.32 1.26 1.15 1.03 0.98 0.99 1.06 1.07 1.09 1.08 1.12 1.14 1.19 1.16 1.14 1.18 1.14
1.08 1.13 1.17 1.21 1.26 1.33 1.37 1.43 1.54 1.62 1.56 1.38 1.19 1.09 1.01 0.96 0.90 0.89 0.91 0.92 0.91 0.94 1.06 1.20 1.22 1.17 1.14 1.11 1.08 1.02 1.00 1.06 1.14 1.13 1.12 1.13 1.14 1.15 1.17 1.18 1.14 1.11 1.11
0.99 1.00 1.00 1.06 1.12 1.18 1.20 1.26 1.36 1.46 1.49 1.39 1.25 1.12 1.00 0.92 0.83 0.77 0.75 0.74 0.81 0.92 1.07 1.12 1.14 1.14 1.07 1.04 1.03 0.99 0.98 1.00 1.09 1.14 1.12 1.13 1.13 1.14 1.13 1.10 1.13 1.12 1.03
0.96 0.93 0.91 0.93 0.94 0.94 0.97 1.04 1.14 1.24 1.30 1.23 1.13 1.02 0.91 0.86 0.76 0.69 0.63 0.62 0.71 0.80 0.89 0.96 1.00 0.98 0.92 0.93 0.95 0.94 0.92 0.98 1.08 1.11 1.08 1.11 1.15 1.15 1.07 1.04 1.06 1.10 1.02
0.93 0.87 0.84 0.84 0.83 0.83 0.87 0.93 0.97 1.00 1.05 1.00 0.92 0.80 0.72 0.67 0.61 0.57 0.56 0.60 0.69 0.78 0.85 0.89 0.90 0.86 0.85 0.88 0.93 0.95 0.93 0.98 1.06 1.08 1.08 1.12 1.16 1.16 1.09 1.06 1.04 1.06 1.06
0.85 0.76 0.69 0.68 0.71 0.74 0.76 0.83 0.88 0.89 0.86 0.82 0.76 0.61 0.58 0.55 0.49 0.47 0.50 0.55 0.62 0.73 0.75 0.74 0.77 0.78 0.76 0.78 0.84 0.91 0.95 1.01 1.08 1.10 1.08 1.10 1.14 1.14 1.16 1.13 1.12 1.09 1.09
0.87 0.74 0.64 0.60 0.61 0.62 0.66 0.75 0.81 0.79 0.72 0.66 0.61 0.57 0.57 0.59 0.49 0.46 0.51 0.60 0.66 0.68 0.65 0.66 0.70 0.74 0.75 0.76 0.76 0.84 0.91 0.97 1.02 1.03 1.09 1.13 1.11 1.09 1.10 1.05 1.05 1.06 1.06
0.83 0.73 0.64 0.55 0.55 0.61 0.63 0.69 0.73 0.73 0.67 0.62 0.59 0.57 0.57 0.61 0.56 0.55 0.59 0.70 0.69 0.63 0.61 0.64 0.67 0.70 0.73 0.78 0.78 0.78 0.82 0.87 0.87 0.87 0.90 0.95 0.97 0.99 1.01 1.00 1.00 0.99 1.01
0.81 0.73 0.63 0.53 0.51 0.55 0.59 0.64 0.68 0.69 0.65 0.60 0.59 0.60 0.63 0.66 0.63 0.62 0.64 0.66 0.62 0.58 0.54 0.58 0.64 0.66 0.69 0.71 0.73 0.73 0.73 0.70 0.70 0.73 0.76 0.80 0.85 0.93 0.99 1.00 1.00 0.99 0.98
0.74 0.68 0.61 0.53 0.47 0.48 0.54 0.62 0.63 0.63 0.61 0.57 0.57 0.59 0.59 0.59 0.56 0.51 0.49 0.49 0.49 0.49 0.49 0.54 0.60 0.62 0.66 0.67 0.60 0.58 0.55 0.50 0.52 0.61 0.64 0.72 0.83 0.90 0.95 0.99 0.98 0.99 0.98